Home   Weather   Crailsheim   Past weeks

Flag for Germany Past Weather in Crailsheim, Baden-Württemberg, Germany — Yesterday and Last 2 Weeks

Now
39 °F

Drizzle. Overcast.


Feels Like: 32 °F
Forecast: 30 / 45 °F
Wind: 10 mph from West

Location: Niederstetten

Current Time: Dec 9, 2016 at 2:49:08 pm

Latest Report: Dec 9, 2016 at 1:20 pm


Visibility: N/A

Pressure: 30.45 "Hg

Humidity: 81%

Dew Point: 34 °F

Location of CrailsheimLocation

Past Weather in Crailsheim — Graph

°F

Crailsheim Temperature Yesterday

Maximum temperature yesterday: 45 °F (at 2:20 pm)
Minimum temperature yesterday: 27 °F (at 2:20 am)
Average temperature yesterday: 35 °F

High & Low Weather Summary for the Past Weeks

 TemperatureHumidityPressure
High46 °F (Nov 25, 3:20 pm)100% (Nov 26, 10:20 am)30.54 "Hg (Nov 26, 10:20 am)
Low19 °F (Dec 4, 6:20 am)53% (Dec 8, 1:20 pm)30.01 "Hg (Nov 25, 4:20 am)
Average32 °F86%30.28 "Hg
* Reported Nov 24 1:20 pm — Dec 9 1:20 pm, Crailsheim, Weather by CustomWeather, © 2016

Note: Actual official high and low records may vary slightly from our data, if they occured in-between our weather recording intervals... More about our weather records

Advertising

Crailsheim Weather History for the Previous 24 Hours

Scroll right to see more
 ConditionsComfort  
Time TempWeatherWind HumidityBarometerVisibility
1:20 pm
Fri, Dec 9
39 °FDrizzle. Overcast.10 mph81%30.45 "HgN/A
12:20 pm41 °FOvercast.13 mph66%30.45 "HgN/A
11:20 am41 °FOvercast.12 mph61%30.45 "HgN/A
10:20 am41 °FPartly sunny.14 mph61%30.45 "HgN/A
8:20 am39 °FPartly sunny.14 mph65%30.42 "HgN/A
7:20 am39 °FPassing clouds.12 mph61%30.42 "HgN/A
6:20 am39 °FPassing clouds.14 mph61%30.39 "HgN/A
5:20 am39 °FPassing clouds.10 mph61%30.42 "HgN/A
4:20 am37 °FChilly.10 mph70%30.42 "HgN/A
3:20 am37 °FChilly.12 mph70%30.42 "HgN/A
2:20 am39 °FChilly.14 mph65%30.42 "HgN/A
1:20 am39 °FChilly.17 mph65%30.42 "HgN/A
12:20 am39 °FChilly.13 mph65%30.42 "HgN/A
11:20 pm
Thu, Dec 8
39 °FChilly.9 mph65%30.45 "HgN/A
10:20 pm39 °FPassing clouds.7 mph65%30.45 "HgN/A
9:20 pm41 °FPassing clouds.9 mph57%30.45 "HgN/A
8:20 pm43 °FPartly cloudy.13 mph57%30.42 "HgN/A
7:20 pm43 °FPartly cloudy.8 mph53%30.45 "HgN/A
6:20 pm39 °FPassing clouds.8 mph61%30.42 "HgN/A
5:20 pm39 °FPassing clouds.6 mph61%30.45 "HgN/A
5:00 pm41 °FPassing clouds.5 mph57%30.45 "HgN/A
4:20 pm41 °FPartly sunny.6 mph61%30.45 "HgN/A
3:20 pm41 °FPartly sunny.6 mph66%30.45 "HgN/A
2:20 pm45 °FPartly sunny.8 mph57%30.45 "HgN/A
Weather by CustomWeather, © 2016

See weather overviewHow to use our weather pages